FW0523 Weather Reports


Display with metric or nautical units.
time (UTC)temp
F
wind
direction
speed
MPH
gust
MPH
rain 1hr
in
rain 24hr
in
rain mn
in
humidity
%
barometer
mb
20260905142603 59 97 0.0 1.0 0.00 0.00 0.00 56 1029.1
20260905140503 60 92 2.0 10.0 0.00 0.00 0.00 54 1029.1
20260905135503 59 360 2.0 10.0 0.00 0.00 0.00 53 1029.1
20260905134504 58 193 3.0 8.0 0.00 0.00 0.00 56 1029.1
20260905132402 58 360 1.0 6.0 0.00 0.00 0.00 55 1028.9
20260905131403 58 233 1.0 8.0 0.00 0.00 0.00 57 1028.9
20260905130404 58 160 3.0 8.0 0.00 0.00 0.00 56 1028.7
20260905125404 58 179 3.0 7.0 0.00 0.00 0.00 57 1028.7
20260905124403 58 72 0.0 10.0 0.00 0.00 0.00 57 1028.4
20260905122306 58 147 4.0 9.0 0.00 0.00 0.00 56 1028.1
20260905121304 59 205 2.0 10.0 0.00 0.00 0.00 55 1028.1
20260905120302 59 160 0.0 8.0 0.00 0.00 0.00 56 1028.1
20260905115306 60 164 2.0 9.0 0.00 0.00 0.00 55 1028.1
20260905114303 60 360 1.0 9.0 0.00 0.00 0.00 55 1028.1
20260905113302 60 110 2.0 9.0 0.00 0.00 0.00 55 1028.1
20260905112305 60 186 2.0 8.0 0.00 0.00 0.00 54 1028.0
20260905111303 60 360 2.0 9.0 0.00 0.00 0.00 54 1028.0
20260905110304 60 360 3.0 3.0 0.00 0.00 0.00 54 1028.0
20260905105306 60 247 2.0 8.0 0.00 0.00 0.00 55 1027.9
20260905104303 61 219 2.0 3.0 0.00 0.00 0.00 55 1027.7
20260905103304 61 198 1.0 9.0 0.00 0.00 0.00 54 1027.7
20260905102305 60 44 0.0 9.0 0.00 0.00 0.00 54 1027.7
20260905101303 60 167 3.0 3.0 0.00 0.00 0.00 56 1027.6
20260905095203 59 233 1.0 10.0 0.00 0.00 0.00 56 1027.7
20260905094204 59 113 4.0 9.0 0.00 0.00 0.00 55 1027.7
20260905093203 59 205 2.0 8.0 0.00 0.00 0.00 55 1027.7
20260905092203 60 123 1.0 9.0 0.00 0.00 0.00 54 1027.6
20260905091204 60 360 1.0 10.0 0.00 0.00 0.00 54 1027.6
20260905090204 61 150 2.0 9.0 0.00 0.00 0.00 53 1027.6
20260905085203 61 205 0.0 8.0 0.00 0.00 0.00 52 1027.6
20260905084204 61 360 2.0 7.0 0.00 0.00 0.00 52 1027.7
20260905083204 61 339 2.0 4.0 0.00 0.00 0.00 52 1027.5
20260905082202 61 360 1.0 8.0 0.00 0.00 0.00 51 1027.6
20260905074003 62 360 1.0 9.0 0.00 0.00 0.00 49 1027.2
20260905073004 62 360 2.0 8.0 0.00 0.00 0.00 49 1027.3
20260905072003 63 157 2.0 10.0 0.00 0.00 0.00 49 1027.3
20260905071003 63 360 2.0 10.0 0.00 0.00 0.00 48 1027.3
20260905070004 63 215 0.0 10.0 0.00 0.00 0.00 48 1027.2
20260905065004 63 360 2.0 9.0 0.00 0.00 0.00 47 1027.2
20260905064005 63 360 1.0 8.0 0.00 0.00 0.00 48 1027.2
20260905063003 63 360 2.0 7.0 0.00 0.00 0.00 48 1027.2
20260905062002 63 360 4.0 9.0 0.00 0.00 0.00 49 1027.2
20260905061003 63 360 1.0 4.0 0.00 0.00 0.00 49 1027.2
20260905060004 63 352 0.0 9.0 0.00 0.00 0.00 49 1027.2
20260905055004 63 308 2.0 10.0 0.00 0.00 0.00 48 1027.1
20260905054002 63 319 2.0 9.0 0.00 0.00 0.00 49 1027.1
20260905053004 63 181 1.0 10.0 0.00 0.00 0.00 48 1027.1
20260905052004 63 209 2.0 9.0 0.00 0.00 0.00 48 1027.1
20260905051002 63 89 0.0 9.0 0.00 0.00 0.00 48 1026.9
20260905050003 64 126 1.0 0.0 0.00 0.00 0.00 47 1027.1
20260905045004 64 99 2.0 3.0 0.00 0.00 0.00 46 1027.1
20260905044002 65 360 2.0 7.0 0.00 0.00 0.00 45 1027.1
20260905043003 65 152 1.0 9.0 0.00 0.00 0.00 45 1027.1
20260905042003 65 230 2.0 10.0 0.00 0.00 0.00 44 1027.1
20260905041002 65 103 0.0 10.0 0.00 0.00 0.00 44 1026.9
20260905040003 66 71 0.0 8.0 0.00 0.00 0.00 43 1026.9
20260905035004 66 360 0.0 8.0 0.00 0.00 0.00 42 1026.8
20260905034004 67 79 0.0 8.0 0.00 0.00 0.00 41 1026.9
20260905033003 67 360 0.0 6.0 0.00 0.00 0.00 40 1026.8
20260905032003 68 360 0.0 9.0 0.00 0.00 0.00 39 1026.5
20260905031004 68 360 1.0 9.0 0.00 0.00 0.00 39 1026.4
20260905030002 68 360 2.0 8.0 0.00 0.00 0.00 38 1026.3
20260905025003 69 360 2.0 9.0 0.00 0.00 0.00 37 1026.1
20260905024004 69 360 1.0 10.0 0.00 0.00 0.00 37 1025.9
20260905023002 69 360 3.0 9.0 0.00 0.00 0.00 36 1025.6
20260905022003 69 360 1.0 10.0 0.00 0.00 0.00 36 1025.5
20260905021003 69 360 1.0 7.0 0.00 0.00 0.00 35 1025.5
20260905020004 69 360 0.0 10.0 0.00 0.00 0.00 35 1025.3
20260905015002 70 360 0.0 8.0 0.00 0.00 0.00 34 1025.3
20260905012904 71 360 0.0 9.0 0.00 0.00 0.00 32 1025.2
20260905011902 71 360 1.0 8.0 0.00 0.00 0.00 32 1025.2
20260905010902 72 360 2.0 9.0 0.00 0.00 0.00 32 1025.2
20260905005903 73 360 1.0 9.0 0.00 0.00 0.00 31 1025.1
20260905004903 74 360 0.0 9.0 0.00 0.00 0.00 30 1025.1
20260905003903 75 360 4.0 9.0 0.00 0.00 0.00 28 1024.9
20260905002904 77 360 0.0 8.0 0.00 0.00 0.00 27 1024.9
20260905001902 78 251 2.0 9.0 0.00 0.00 0.00 25 1025.1
20260905000904 80 196 1.0 10.0 0.00 0.00 0.00 23 1024.8
20260904234802 80 360 3.0 7.0 0.00 0.00 0.00 22 1024.7
20260904233802 81 140 3.0 9.0 0.00 0.00 0.00 21 1024.7
20260904231702 80 360 0.0 10.0 0.00 0.00 0.00 22 1024.9
20260904230702 80 360 2.0 7.0 0.00 0.00 0.00 22 1025.1
20260904225703 79 107 5.0 9.0 0.00 0.00 0.00 23 1025.1
20260904223604 79 175 6.0 11.0 0.00 0.00 0.00 25 1025.6
20260904222603 78 209 6.0 14.0 0.00 0.00 0.00 26 1025.7
20260904221603 77 124 5.0 22.0 0.00 0.00 0.00 26 1025.7
20260904220604 78 4 9.0 20.0 0.00 0.00 0.00 25 1025.6
20260904215604 80 90 4.0 9.0 0.00 0.00 0.00 23 1025.6
20260904214603 80 42 4.0 11.0 0.00 0.00 0.00 23 1025.3
20260904213603 79 360 7.0 11.0 0.00 0.00 0.00 24 1025.6
20260904212603 79 360 5.0 10.0 0.00 0.00 0.00 24 1025.6
20260904210503 78 124 5.0 13.0 0.00 0.00 0.00 26 1025.9
20260904205503 80 182 4.0 10.0 0.00 0.00 0.00 24 1025.7
20260904204504 80 157 2.0 7.0 0.00 0.00 0.00 24 1025.7
20260904202404 78 137 3.0 9.0 0.00 0.00 0.00 27 1026.1
20260904201404 77 360 4.0 11.0 0.00 0.00 0.00 28 1026.3
20260904200403 77 167 3.0 19.0 0.00 0.00 0.00 28 1026.4
20260904195404 77 18 9.0 17.0 0.00 0.00 0.00 28 1026.3
20260904194402 77 83 2.0 2.0 0.00 0.00 0.00 26 1026.3
20260904193402 77 181 0.0 6.0 0.00 0.00 0.00 26 1026.0
20260904192403 76 123 1.0 9.0 0.00 0.00 0.00 25 1026.1
20260904191403 76 37 1.0 9.0 0.00 0.00 0.00 26 1026.1
20260904190404 75 357 1.0 9.0 0.00 0.00 0.00 29 1026.3
20260904185404 74 16 0.0 3.0 0.00 0.00 0.00 29 1026.4
20260904184404 72 14 0.0 1.0 0.00 0.00 0.00 32 1026.7
20260904182306 71 328 0.0 7.0 0.00 0.00 0.00 35 1026.8
20260904181303 71 13 1.0 5.0 0.00 0.00 0.00 35 1027.1
20260904180302 71 340 2.0 5.0 0.00 0.00 0.00 35 1027.2
20260904175305 71 7 3.0 4.0 0.00 0.00 0.00 36 1027.3
20260904174303 70 360 0.0 1.0 0.00 0.00 0.00 38 1027.5
20260904173304 69 336 0.0 0.0 0.00 0.00 0.00 40 1027.6
20260904172305 68 357 2.0 1.0 0.00 0.00 0.00 40 1027.6
20260904171303 68 3 0.0 1.0 0.00 0.00 0.00 40 1027.6
20260904165203 67 332 0.0 0.0 0.00 0.00 0.00 42 1027.7
20260904163104 66 34 0.0 3.0 0.00 0.00 0.00 43 1027.7
20260904162102 66 8 2.0 5.0 0.00 0.00 0.00 43 1027.6
20260904161103 65 40 1.0 9.0 0.00 0.00 0.00 43 1027.6
20260904160104 65 18 3.0 9.0 0.00 0.00 0.00 44 1027.5
20260904154004 64 360 5.0 14.0 0.00 0.00 0.00 46 1027.3
20260904150803 64 3 7.0 12.0 0.00 0.00 0.00 46 1026.9
20260904145802 63 360 4.0 8.0 0.00 0.00 0.00 49 1026.8
20260904144803 62 88 6.0 10.0 0.00 0.00 0.00 50 1026.9